Location: Newark
(41.8083°N, 72.2500°W)
Time: 11:42:11
(UTC+00:00)

Altair - Pass Details

Date: 07 December 2021
Orbit: 1501 x 1683 km, 47.2° (Epoch: 27 January)

Event Time Altitude Azimuth Distance (km) Brightness Sun altitude
Rises 02:38:47 0° 296° (WNW) 4,659 10.5 -58.2°
Reaches altitude 10° 02:42:04 10° 289° (WNW) 3,663 9.8 -58.7°
Enters shadow 02:43:28 15° 284° (WNW) 3,264 9.5 -59.0°
